Waarnemingen

Advertentie
Mijn weer
Perpignan, Frankrijk (7747): temperatuur & dauwpunt: 14.02.2019 14:00:00 - 20.02.2019 14:00:00 (CET)Perpignan, Frankrijk (7747): temperatuur 5cm: 14.02.2019 14:00:00 - 20.02.2019 14:00:00 (CET)Perpignan, Frankrijk (7747): temperatuur -20cm & temperatuur -100cm: 14.02.2019 14:00:00 - 20.02.2019 14:00:00 (CET)Perpignan, Frankrijk (7747): windsnelheid & windstoten: 14.02.2019 14:00:00 - 20.02.2019 14:00:00 (CET)Perpignan, Frankrijk (7747): windrichting: 14.02.2019 14:00:00 - 20.02.2019 14:00:00 (CET)Perpignan, Frankrijk (7747): luchtdruk: 14.02.2019 14:00:00 - 20.02.2019 14:00:00 (CET)Perpignan, Frankrijk (7747): zicht: 14.02.2019 14:00:00 - 20.02.2019 14:00:00 (CET)Perpignan, Frankrijk (7747): neerslag: 14.02.2019 14:00:00 - 20.02.2019 14:00:00 (CET)
Datum & Tijd tt [°C] td [°C] tt 5cm [°C] tt -20cm [°C] tt -100cm [°C] ff [km/u] ff [kn] fx [km/u] fx [kn] dd ppp [hPa] vv [km] rr [mm]
20.02.2019 14:00:00 - - - - - - - - - - - - -
20.02.2019 13:00:00 13,8 6,6 15,5 10,5 11,4 8 4 15 8 O 1025,5 18 0,0
20.02.2019 12:00:00 13,5 7,3 20,5 10,4 11,4 7 4 12 7 ONO 1025,8 20 0,0
20.02.2019 11:00:00 12,4 7,5 18,6 10,4 11,4 3 2 9 5 ONO 1025,6 20 0,0
20.02.2019 10:00:00 10,5 7,2 13,9 10,4 11,4 2 1 9 5 N 1025,3 21 0,0
20.02.2019 09:00:00 7,7 6,2 4,4 10,5 11,4 7 4 13 7 WZW 1025,0 18 0,0
20.02.2019 08:00:00 6,0 5,0 3,8 10,6 11,4 9 5 11 6 WZW 1024,3 14 0,0
20.02.2019 07:00:00 6,5 5,1 3,8 10,7 11,4 8 5 11 6 WZW 1023,5 14 0,0
20.02.2019 06:00:00 7,2 5,8 4,1 10,8 11,3 5 3 8 4 WZW 1023,5 15 0,0
20.02.2019 05:00:00 8,2 6,2 4,6 10,8 11,4 0 0 5 3 N 1023,3 19 0,0
20.02.2019 04:00:00 9,6 6,9 7,8 10,9 11,4 4 2 11 6 NNW 1023,3 22 0,0
20.02.2019 03:00:00 9,2 6,8 6,6 10,9 11,4 4 2 10 5 NW 1023,6 28 0,0
20.02.2019 02:00:00 9,0 6,6 6,5 11,0 11,4 5 3 8 5 WNW 1023,4 30 0,0
20.02.2019 01:00:00 9,4 7,0 7,3 11,1 11,4 6 4 10 6 WNW 1023,3 31 0,0
20.02.2019 00:00:00 10,1 7,2 8,6 11,1 11,4 8 4 13 7 NW 1023,1 32 0,0
19.02.2019 23:00:00 9,8 7,0 8,8 11,2 11,4 10 5 14 8 NNW 1023,1 30 0,0
19.02.2019 22:00:00 9,6 7,2 7,6 11,3 11,4 9 5 13 7 NNW 1022,9 23 0,0
19.02.2019 21:00:00 9,7 7,0 8,0 11,3 11,4 8 5 11 6 NNW 1022,7 22 0,0
19.02.2019 20:00:00 10,4 7,1 7,8 11,3 11,3 4 2 16 9 NNO 1022,8 26 0,0
19.02.2019 19:00:00 11,6 7,5 11,1 11,3 11,3 9 5 16 9 O 1022,6 31 0,0
19.02.2019 18:00:00 12,1 7,4 11,7 11,1 11,3 10 6 24 13 OZO 1022,0 39 0,0
19.02.2019 17:00:00 12,9 7,6 13,4 11,0 11,3 15 8 24 13 OZO 1022,3 38 0,0
19.02.2019 16:00:00 13,6 7,4 15,0 10,8 11,2 15 8 26 14 OZO 1022,2 44 0,0
19.02.2019 15:00:00 14,5 7,1 15,0 10,6 11,4 16 9 26 14 OZO 1022,2 44 0,0
19.02.2019 14:00:00 13,5 7,0 15,1 10,4 11,4 13 7 22 12 ZO 1022,6 33 0,0
19.02.2019 13:00:00 14,1 7,2 17,2 10,2 11,3 13 7 21 11 ONO 1023,0 28 0,0
19.02.2019 12:00:00 13,7 6,1 15,3 10,0 11,4 5 3 9 5 ZO 1023,6 26 0,0
19.02.2019 11:00:00 12,2 6,9 13,5 10,0 11,3 0 0 6 3 N 1023,6 27 0,0
19.02.2019 10:00:00 9,5 7,9 8,1 10,0 11,3 4 2 11 6 W 1023,5 19 0,0
19.02.2019 09:00:00 7,2 6,0 5,6 10,0 11,3 6 3 15 8 WZW 1023,1 16 0,0
19.02.2019 08:00:00 7,0 5,3 6,0 10,1 11,3 8 4 15 8 WZW 1022,4 20 0,0
19.02.2019 07:00:00 7,4 6,3 5,2 10,2 11,3 6 4 13 7 W 1022,1 17 0,0
19.02.2019 06:00:00 6,0 5,3 3,8 10,3 11,3 10 6 15 8 W 1022,0 13 0,0
19.02.2019 05:00:00 5,8 4,6 4,0 10,3 11,3 9 5 14 8 Z 1022,0 13 0,0
19.02.2019 04:00:00 9,5 8,3 7,2 10,4 11,3 4 2 13 7 NW 1021,8 17 0,0
19.02.2019 03:00:00 8,7 7,9 6,3 10,5 11,3 7 4 11 6 WNW 1022,0 12 0,0
19.02.2019 02:00:00 7,9 7,1 3,7 10,5 11,3 7 4 10 5 WNW 1022,2 12 0,0
19.02.2019 01:00:00 8,6 7,4 5,1 10,6 11,2 6 4 15 8 NNW 1022,1 16 0,0
19.02.2019 00:00:00 8,7 7,8 4,7 10,8 11,3 9 5 14 7 NNW 1022,1 15 0,0
18.02.2019 23:00:00 8,0 6,8 4,0 10,9 11,3 9 5 14 7 N 1022,0 15 0,0
18.02.2019 22:00:00 8,8 7,9 5,1 11,0 11,3 8 4 12 6 NNW 1022,1 16 0,0
18.02.2019 21:00:00 9,4 7,8 6,3 11,1 11,3 7 4 13 7 NNW 1021,9 16 0,0
18.02.2019 20:00:00 9,8 7,7 5,4 11,1 11,3 9 5 12 6 NNW 1021,6 21 0,0
18.02.2019 19:00:00 11,1 7,8 7,5 11,1 11,3 4 2 17 9 O 1021,1 30 0,0
18.02.2019 18:00:00 12,6 8,1 12,0 11,0 11,3 11 6 30 16 OZO 1020,4 34 0,0
18.02.2019 17:00:00 13,8 8,6 14,7 10,8 11,2 21 12 35 19 OZO 1020,4 33 0,0
18.02.2019 16:00:00 15,1 8,3 17,7 10,5 11,2 22 12 36 19 OZO 1020,5 43 0,0
18.02.2019 15:00:00 15,9 8,4 18,0 10,2 11,3 22 12 32 17 OZO 1020,7 46 0,0
18.02.2019 14:00:00 16,0 6,1 21,1 9,8 11,3 7 4 19 11 ONO 1021,2 52 0,0
18.02.2019 13:00:00 15,9 5,5 21,6 9,6 11,3 6 3 13 7 OZO 1021,7 29 0,0
18.02.2019 12:00:00 15,2 7,2 20,9 9,5 11,3 2 1 13 7 ZZW 1022,5 28 0,0
18.02.2019 11:00:00 12,8 7,2 19,0 9,4 11,3 2 1 12 6 O 1022,9 33 0,0
18.02.2019 10:00:00 10,1 5,7 14,8 9,5 11,2 6 3 10 5 WNW 1023,2 34 0,0
18.02.2019 09:00:00 7,2 5,8 0,5 9,6 11,2 4 2 6 4 NW 1023,0 18 0,0
18.02.2019 08:00:00 3,8 2,5 -1,2 9,7 11,3 5 3 10 5 WNW 1022,5 17 0,0
18.02.2019 07:00:00 5,6 4,2 2,0 9,8 11,2 8 4 15 8 NW 1022,3 27 0,0
18.02.2019 06:00:00 6,7 5,8 1,5 9,9 11,2 8 5 13 7 WNW 1022,2 31 0,0
18.02.2019 05:00:00 5,7 4,8 1,3 10,0 11,2 6 4 13 7 WNW 1022,0 28 0,0
18.02.2019 04:00:00 6,7 5,5 3,5 10,1 11,2 6 4 16 9 NW 1022,1 24 0,0
18.02.2019 03:00:00 6,6 5,5 4,0 10,3 11,2 8 4 15 8 NNW 1022,6 20 0,0
18.02.2019 02:00:00 6,9 6,2 2,8 10,4 11,3 9 5 13 7 NNW 1023,0 23 0,0
18.02.2019 01:00:00 7,0 5,8 4,0 10,5 11,3 9 5 15 8 N 1023,3 19 0,0
18.02.2019 00:00:00 7,1 6,0 2,6 10,7 11,2 8 4 13 7 N 1023,5 20 0,0
17.02.2019 23:00:00 7,7 6,9 1,5 10,8 11,2 5 3 16 9 NNW 1024,0 19 0,0
17.02.2019 22:00:00 8,9 7,7 4,5 10,9 11,2 11 6 16 9 NW 1023,9 26 0,0
17.02.2019 21:00:00 9,1 7,2 6,6 11,0 11,2 8 4 11 6 NNW 1023,6 24 0,0
17.02.2019 20:00:00 10,0 7,2 6,8 11,0 11,1 7 4 9 5 N 1023,6 35 0,0
17.02.2019 19:00:00 11,4 7,9 9,5 10,9 11,2 9 5 28 15 ZZO 1023,2 41 0,0
17.02.2019 18:00:00 13,3 8,1 12,8 10,8 11,2 17 9 29 15 ZO 1022,6 47 0,0
17.02.2019 17:00:00 15,4 8,8 17,0 10,6 11,2 16 8 28 15 OZO 1022,8 43 0,0
17.02.2019 16:00:00 15,9 9,6 18,5 10,3 11,1 21 11 30 16 OZO 1023,1 20 0,0
17.02.2019 15:00:00 17,2 7,8 18,8 10,0 11,2 18 10 25 13 OZO 1023,4 60 0,0
17.02.2019 14:00:00 16,4 5,0 21,4 9,7 11,2 5 3 14 7 O 1024,2 60 0,0
17.02.2019 13:00:00 15,1 6,1 20,5 9,5 11,1 6 4 18 10 N 1025,2 48 0,0
17.02.2019 12:00:00 13,2 4,3 19,7 9,3 11,2 10 6 19 10 ONO 1026,0 32 0,0
17.02.2019 11:00:00 11,9 4,4 16,7 9,3 11,1 10 5 17 9 NO 1026,4 36 0,0
17.02.2019 10:00:00 9,6 5,6 13,4 9,4 11,2 9 5 14 7 N 1026,6 43 0,0
17.02.2019 09:00:00 6,1 4,6 1,7 9,5 11,1 7 4 14 8 NNW 1026,6 33 0,0
17.02.2019 08:00:00 4,6 2,3 -0,1 9,7 11,1 8 4 17 9 NW 1026,2 34 0,0
17.02.2019 07:00:00 4,0 3,3 -1,5 9,8 11,1 8 4 13 7 NW 1026,0 50 0,0
17.02.2019 06:00:00 3,1 2,5 -1,9 10,0 11,1 6 3 10 5 WNW 1026,0 20 0,0
17.02.2019 05:00:00 3,3 2,9 -1,7 10,2 11,1 6 3 9 5 W 1025,9 18 0,0
17.02.2019 04:00:00 3,2 2,8 -1,1 10,4 11,1 6 3 8 4 W 1026,1 15 0,0
17.02.2019 03:00:00 4,1 3,5 -0,9 10,5 11,1 3 1 10 5 NNW 1026,4 14 0,0
17.02.2019 02:00:00 5,8 5,4 1,1 10,7 11,1 6 3 11 6 NNW 1026,7 16 0,0
17.02.2019 01:00:00 5,9 5,2 1,4 10,8 11,0 8 4 11 6 WNW 1027,0 12 0,0
17.02.2019 00:00:00 8,4 7,8 5,8 10,9 11,1 8 4 13 7 NNW 1027,1 16 0,0
16.02.2019 23:00:00 8,7 8,2 6,1 11,0 11,1 9 5 13 7 NNW 1027,4 21 0,0
16.02.2019 22:00:00 9,1 8,3 6,6 11,1 11,1 9 5 13 7 NNW 1027,7 20 0,0
16.02.2019 21:00:00 8,9 8,3 6,5 11,3 11,0 8 4 13 7 N 1027,8 10 0,0
16.02.2019 20:00:00 9,1 8,3 7,6 11,3 11,0 10 6 18 10 N 1028,1 8 0,0
16.02.2019 19:00:00 9,7 8,8 8,7 11,3 11,0 11 6 19 10 NNO 1028,2 10 0,0
16.02.2019 18:00:00 11,5 9,2 10,9 11,2 11,0 12 7 22 12 ONO 1028,1 22 0,0
16.02.2019 17:00:00 13,0 8,9 14,2 11,0 11,0 16 9 24 13 O 1028,4 20 0,0
16.02.2019 16:00:00 12,7 8,2 13,7 10,8 11,0 17 9 22 12 O 1029,0 19 0,0
16.02.2019 15:00:00 13,3 8,4 15,6 10,5 11,1 15 8 24 13 O 1029,4 23 0,0
16.02.2019 14:00:00 13,3 7,7 18,3 10,3 11,0 14 8 24 13 O 1029,8 19 0,0
16.02.2019 13:00:00 12,8 8,3 15,1 10,0 11,0 9 5 21 12 NNO 1030,5 25 0,0
16.02.2019 12:00:00 12,1 8,0 13,2 9,9 11,1 9 5 16 9 ONO 1031,1 20 0,0
16.02.2019 11:00:00 11,6 7,1 14,6 9,9 11,0 6 4 12 6 O 1031,2 15 0,0
16.02.2019 10:00:00 9,6 6,9 9,5 9,9 11,0 4 2 9 5 ZW 1031,1 22 0,0
16.02.2019 09:00:00 8,2 6,2 6,6 9,9 11,1 5 3 7 4 WZW 1031,3 22 0,0
16.02.2019 08:00:00 7,4 5,9 6,2 9,9 11,0 3 1 8 4 ZW 1030,6 19 0,0
16.02.2019 07:00:00 7,2 5,7 5,9 9,9 11,0 6 3 10 5 WZW 1030,2 17 0,0
16.02.2019 06:00:00 7,5 5,8 6,7 10,0 11,0 8 4 11 6 WZW 1030,1 15 0,0
16.02.2019 05:00:00 8,0 6,3 7,1 10,0 11,0 8 4 10 6 WZW 1029,8 18 0,0
16.02.2019 04:00:00 8,2 6,7 7,7 10,0 11,0 6 3 11 6 WZW 1029,8 15 0,0
16.02.2019 03:00:00 8,2 6,5 7,5 10,1 11,0 8 5 12 6 WZW 1029,9 14 0,0
16.02.2019 02:00:00 8,2 6,5 7,3 10,1 11,0 6 4 9 5 WZW 1029,6 20 0,0
16.02.2019 01:00:00 8,2 6,7 7,3 10,1 11,0 4 2 7 4 ZW 1029,6 21 0,0
16.02.2019 00:00:00 9,3 7,9 8,3 10,2 11,0 5 3 7 4 WZW 1029,5 26 0,0
15.02.2019 23:00:00 10,1 8,5 9,5 10,2 11,0 5 3 10 5 NNW 1029,6 27 0,0
15.02.2019 22:00:00 9,9 8,8 9,0 10,2 11,1 6 4 10 5 N 1029,6 17 0,0
15.02.2019 21:00:00 9,6 8,5 7,9 10,3 11,0 8 4 12 6 N 1029,5 15 0,0
15.02.2019 20:00:00 9,6 8,4 7,4 10,3 11,0 7 4 11 6 NNW 1029,5 19 0,0
15.02.2019 19:00:00 10,0 8,4 7,9 10,2 11,0 5 3 15 8 N 1029,5 15 0,0
15.02.2019 18:00:00 11,5 8,4 10,6 10,1 11,0 10 5 20 11 NO 1029,3 53 0,0
15.02.2019 17:00:00 12,3 8,8 12,6 9,9 11,0 13 7 22 12 ONO 1029,4 20 0,0
15.02.2019 16:00:00 12,4 6,7 16,3 9,7 11,0 15 8 26 14 ONO 1029,3 23 0,0
15.02.2019 15:00:00 12,2 6,0 15,4 9,4 10,9 12 6 23 13 ONO 1029,4 20 0,0
15.02.2019 14:00:00 12,2 6,7 17,9 9,1 11,0 10 5 24 13 ONO 1029,7 20 0,0
15.02.2019 13:00:00 11,2 5,9 13,0 8,9 11,0 9 5 16 9 O 1030,6 15 0,0
15.02.2019 12:00:00 8,6 6,9 9,0 8,8 11,0 5 3 10 6 NO 1031,5 10 0,0
15.02.2019 11:00:00 7,2 6,6 8,3 8,8 11,0 5 3 13 7 NNO 1031,6 7 0,0
15.02.2019 10:00:00 6,7 6,4 6,8 8,8 11,0 4 2 8 4 ONO 1031,7 7 0,0
15.02.2019 09:00:00 5,5 5,4 2,4 8,9 11,0 3 2 6 3 ONO 1031,6 0,9 0,0
15.02.2019 08:00:00 3,6 3,2 -0,7 9,0 11,0 0 0 5 3 N 1031,2 8 0,0
15.02.2019 07:00:00 4,0 3,3 -0,9 9,0 11,0 0 0 6 3 N 1031,0 7 0,0
15.02.2019 06:00:00 5,7 5,3 4,3 9,1 11,0 2 1 4 2 NNO 1030,8 12 0,0
15.02.2019 05:00:00 5,2 4,9 1,8 9,2 10,9 0 0 6 3 N 1030,6 10 0,0
15.02.2019 04:00:00 4,9 4,6 0,9 9,3 11,0 5 3 10 5 W 1030,7 11 0,0
15.02.2019 03:00:00 3,6 3,3 -0,9 9,5 11,0 8 4 11 6 WZW 1030,9 10 0,0
15.02.2019 02:00:00 4,0 3,6 -1,5 9,6 11,0 3 2 5 3 WZW 1031,1 3,2 0,0
15.02.2019 01:00:00 5,0 4,1 -0,7 9,7 11,0 4 2 11 6 N 1031,0 10 0,0
15.02.2019 00:00:00 5,2 4,3 -0,6 9,9 11,1 6 4 9 5 NNW 1030,8 21 0,0
14.02.2019 23:00:00 5,7 4,8 1,0 10,0 11,0 7 4 10 6 W 1031,0 29 0,0
14.02.2019 22:00:00 6,9 5,5 3,2 10,1 11,0 9 5 14 7 W 1031,1 30 0,0
14.02.2019 21:00:00 8,9 7,3 6,1 10,1 11,0 11 6 15 8 NNW 1030,9 28 0,0
14.02.2019 20:00:00 9,3 7,7 7,5 10,1 11,1 9 5 15 8 N 1031,0 20 0,0
14.02.2019 19:00:00 9,9 8,0 8,4 10,1 11,1 12 7 24 13 NNO 1031,0 20 0,0
14.02.2019 18:00:00 11,4 8,6 10,8 9,9 11,0 18 10 27 15 NNO 1030,9 26 0,0
14.02.2019 17:00:00 13,4 8,5 15,4 9,7 11,1 16 9 26 14 NO 1031,0 31 0,0
14.02.2019 16:00:00 14,5 8,4 17,5 9,5 11,0 19 10 30 16 O 1031,1 43 0,0
14.02.2019 15:00:00 15,1 6,6 16,8 9,2 11,0 16 9 32 17 O 1031,4 41 0,0
14.02.2019 14:00:00 14,5 6,1 17,7 8,9 11,1 19 11 29 16 O 1032,2 46 0,0

tt = temperatuur
td = dauwpunt
tt 5cm = temperatuur 5cm
tt -20cm = temperatuur -20cm
tt -100cm = temperatuur -100cm
ff = windsnelheid
fx = windstoten
dd = windrichting
ppp = luchtdruk
vv = zicht
rr = neerslag

Weerstations in de omgeving